Time,TemperatureF,DewpointF,PressureIn,WindDirection,WindDirectionDegrees,WindSpeedMPH,WindSpeedGustMPH,Humidity,HourlyPrecipIn,Conditions,Clouds,dailyrainin,SoftwareType,DateUTC
2013-04-22 00:10:00,44.2,31.0,30.60,ENE,75,3.0,6.0,61,0.00,,,0.00,weatherlink.com 1.10,2013-04-22 04:10:00,
2013-04-22 00:25:00,44.2,33.0,30.61,East,84,3.0,5.0,64,0.00,,,0.00,weatherlink.com 1.10,2013-04-22 04:25:00,
2013-04-22 00:40:00,44.1,33.0,30.60,ENE,71,2.0,5.0,66,0.00,,,0.00,weatherlink.com 1.10,2013-04-22 04:40:00,
2013-04-22 00:55:00,44.2,33.0,30.60,East,82,3.0,4.0,66,0.00,,,0.00,weatherlink.com 1.10,2013-04-22 04:55:00,
2013-04-22 01:10:00,44.2,33.0,30.60,East,85,5.0,6.0,66,0.00,,,0.00,weatherlink.com 1.10,2013-04-22 05:10:00,
2013-04-22 01:25:00,44.2,34.0,30.59,East,98,1.0,6.0,68,0.00,,,0.00,weatherlink.com 1.10,2013-04-22 05:25:00,
2013-04-22 01:40:00,44.0,35.0,30.59,SE,128,5.0,5.0,70,0.00,,,0.00,weatherlink.com 1.10,2013-04-22 05:40:00,
2013-04-22 01:56:00,43.8,35.0,30.58,ENE,68,2.0,7.0,72,0.00,,,0.00,weatherlink.com 1.10,2013-04-22 05:56:00,
2013-04-22 02:11:00,43.7,36.0,30.58,East,94,5.0,8.0,73,0.00,,,0.00,weatherlink.com 1.10,2013-04-22 06:11:00,
2013-04-22 02:26:00,43.6,36.0,30.57,ENE,77,2.0,7.0,75,0.00,,,0.00,weatherlink.com 1.10,2013-04-22 06:26:00,
2013-04-22 02:41:00,43.6,37.0,30.57,ENE,75,5.0,5.0,76,0.00,,,0.00,weatherlink.com 1.10,2013-04-22 06:41:00,
2013-04-22 02:56:00,43.7,37.0,30.56,ENE,71,4.0,9.0,78,0.00,,,0.00,weatherlink.com 1.10,2013-04-22 06:56:00,
2013-04-22 03:11:00,43.9,37.0,30.57,ENE,70,3.0,7.0,78,0.00,,,0.00,weatherlink.com 1.10,2013-04-22 07:11:00,
2013-04-22 03:26:00,44.0,38.0,30.57,East,86,5.0,9.0,79,0.00,,,0.00,weatherlink.com 1.10,2013-04-22 07:26:00,
2013-04-22 03:41:00,44.0,38.0,30.57,ENE,74,2.0,9.0,79,0.00,,,0.00,weatherlink.com 1.10,2013-04-22 07:41:00,
2013-04-22 03:56:00,44.0,38.0,30.57,ENE,63,2.0,9.0,79,0.00,,,0.00,weatherlink.com 1.10,2013-04-22 07:56:00,
2013-04-22 04:11:00,44.1,38.0,30.57,East,79,3.0,8.0,79,0.00,,,0.00,weatherlink.com 1.10,2013-04-22 08:11:00,
2013-04-22 04:26:00,44.1,38.0,30.57,ENE,68,1.0,9.0,78,0.00,,,0.00,weatherlink.com 1.10,2013-04-22 08:26:00,
2013-04-22 04:41:00,44.1,37.0,30.57,East,81,3.0,9.0,77,0.00,,,0.00,weatherlink.com 1.10,2013-04-22 08:41:00,
2013-04-22 04:56:00,44.4,37.0,30.57,East,96,5.0,-999.0,75,-99.99,,,0.00,weatherlink.com 1.10,2013-04-22 08:56:00,
2013-04-22 05:11:00,44.5,37.0,30.56,East,86,5.0,10.0,75,0.00,,,0.00,weatherlink.com 1.10,2013-04-22 09:11:00,
2013-04-22 05:26:00,44.6,37.0,30.56,ENE,74,5.0,13.0,74,0.00,,,0.00,weatherlink.com 1.10,2013-04-22 09:26:00,
2013-04-22 05:41:00,44.6,37.0,30.56,East,82,6.0,14.0,74,0.00,,,0.00,weatherlink.com 1.10,2013-04-22 09:41:00,
2013-04-22 05:56:00,44.6,36.0,30.56,ENE,77,3.0,12.0,72,0.00,,,0.00,weatherlink.com 1.10,2013-04-22 09:56:00,
2013-04-22 06:11:00,44.4,37.0,30.56,ENE,70,9.0,10.0,76,0.00,,,0.00,weatherlink.com 1.10,2013-04-22 10:11:00,
2013-04-22 06:26:00,44.4,37.0,30.56,NE,46,2.0,12.0,76,0.00,,,0.00,weatherlink.com 1.10,2013-04-22 10:26:00,
2013-04-22 06:41:00,44.5,37.0,30.56,ENE,75,3.0,11.0,76,0.00,,,0.00,weatherlink.com 1.10,2013-04-22 10:41:00,
2013-04-22 06:56:00,44.7,37.0,30.56,ENE,77,5.0,11.0,75,0.00,,,0.00,weatherlink.com 1.10,2013-04-22 10:56:00,
2013-04-22 07:11:00,45.0,37.0,30.55,ENE,72,7.0,13.0,74,0.00,,,0.00,weatherlink.com 1.10,2013-04-22 11:11:00,
2013-04-22 07:26:00,45.1,37.0,30.56,East,83,6.0,13.0,73,0.00,,,0.00,weatherlink.com 1.10,2013-04-22 11:26:00,
2013-04-22 07:41:00,45.5,37.0,30.58,East,81,8.0,17.0,72,0.00,,,0.00,weatherlink.com 1.10,2013-04-22 11:41:00,
2013-04-22 07:56:00,46.1,36.0,30.59,East,84,7.0,16.0,68,0.00,,,0.00,weatherlink.com 1.10,2013-04-22 11:56:00,
2013-04-22 08:11:00,45.9,37.0,30.57,ENE,71,5.0,17.0,70,0.00,,,0.00,weatherlink.com 1.10,2013-04-22 12:11:00,
2013-04-22 08:26:00,46.4,37.0,30.57,NE,49,4.0,18.0,70,0.00,,,0.00,weatherlink.com 1.10,2013-04-22 12:26:00,
2013-04-22 08:41:00,46.9,38.0,30.57,NE,39,9.0,16.0,72,0.00,,,0.00,weatherlink.com 1.10,2013-04-22 12:41:00,
2013-04-22 08:57:00,47.0,38.0,30.57,ENE,60,7.0,14.0,70,0.00,,,0.00,weatherlink.com 1.10,2013-04-22 12:57:00,
2013-04-22 09:12:00,47.8,39.0,30.57,NE,51,2.0,16.0,71,0.00,,,0.00,weatherlink.com 1.10,2013-04-22 13:12:00,
2013-04-22 09:27:00,48.2,39.0,30.57,East,79,7.0,14.0,70,0.00,,,0.00,weatherlink.com 1.10,2013-04-22 13:27:00,
2013-04-22 09:43:00,48.1,39.0,30.57,East,79,11.0,18.0,70,0.00,,,0.00,weatherlink.com 1.10,2013-04-22 13:43:00,
2013-04-22 09:57:00,48.3,39.0,30.57,ENE,65,9.0,16.0,71,0.00,,,0.00,weatherlink.com 1.10,2013-04-22 13:57:00,
2013-04-22 10:12:00,48.5,39.0,30.57,NNE,18,4.0,15.0,70,0.00,,,0.00,weatherlink.com 1.10,2013-04-22 14:12:00,
2013-04-22 10:27:00,48.2,39.0,30.58,ENE,70,7.0,17.0,70,0.00,,,0.00,weatherlink.com 1.10,2013-04-22 14:27:00,
2013-04-22 10:42:00,48.3,40.0,30.57,East,85,9.0,14.0,72,0.00,,,0.00,weatherlink.com 1.10,2013-04-22 14:42:00,
2013-04-22 10:57:00,47.8,40.0,30.58,East,84,3.0,15.0,73,0.00,,,0.00,weatherlink.com 1.10,2013-04-22 14:57:00,
2013-04-22 11:12:00,48.0,39.0,30.58,SSE,154,11.0,17.0,72,0.00,,,0.00,weatherlink.com 1.10,2013-04-22 15:12:00,
2013-04-22 11:27:00,48.6,40.0,30.57,ENE,67,7.0,16.0,73,0.00,,,0.00,weatherlink.com 1.10,2013-04-22 15:27:00,
2013-04-22 11:42:00,48.3,40.0,30.57,ENE,70,13.0,18.0,74,0.00,,,0.00,weatherlink.com 1.10,2013-04-22 15:42:00,
2013-04-22 11:57:00,48.7,40.0,30.56,ENE,60,11.0,15.0,72,0.00,,,0.00,weatherlink.com 1.10,2013-04-22 15:57:00,
2013-04-22 12:12:00,49.2,41.0,30.56,NE,47,17.0,22.0,72,0.00,,,0.00,weatherlink.com 1.10,2013-04-22 16:12:00,
2013-04-22 12:27:00,48.7,40.0,30.55,East,81,6.0,18.0,73,0.00,,,0.00,weatherlink.com 1.10,2013-04-22 16:27:00,
2013-04-22 12:42:00,49.1,41.0,30.55,NNE,25,9.0,17.0,73,0.00,,,0.00,weatherlink.com 1.10,2013-04-22 16:42:00,
2013-04-22 12:57:00,49.5,42.0,30.55,East,84,7.0,16.0,74,0.00,,,0.00,weatherlink.com 1.10,2013-04-22 16:57:00,
2013-04-22 13:12:00,49.8,42.0,30.54,ENE,66,4.0,15.0,74,0.00,,,0.00,weatherlink.com 1.10,2013-04-22 17:12:00,
2013-04-22 13:27:00,49.7,41.0,30.54,ENE,77,6.0,18.0,73,0.00,,,0.00,weatherlink.com 1.10,2013-04-22 17:27:00,
2013-04-22 13:42:00,49.3,41.0,30.54,NE,46,2.0,16.0,73,0.00,,,0.00,weatherlink.com 1.10,2013-04-22 17:42:00,
2013-04-22 13:57:00,49.3,41.0,30.54,ENE,65,5.0,15.0,72,0.00,,,0.00,weatherlink.com 1.10,2013-04-22 17:57:00,
2013-04-22 14:12:00,49.7,41.0,30.54,NE,49,11.0,18.0,72,0.00,,,0.00,weatherlink.com 1.10,2013-04-22 18:12:00,
2013-04-22 14:27:00,49.9,41.0,30.54,ENE,63,6.0,17.0,71,0.00,,,0.00,weatherlink.com 1.10,2013-04-22 18:27:00,
2013-04-22 14:42:00,49.0,40.0,30.53,NE,47,4.0,16.0,72,0.00,,,0.00,weatherlink.com 1.10,2013-04-22 18:42:00,
2013-04-22 14:57:00,49.6,41.0,30.52,NE,46,6.0,19.0,72,0.00,,,0.00,weatherlink.com 1.10,2013-04-22 18:57:00,
2013-04-22 15:12:00,49.4,41.0,30.51,ENE,70,3.0,14.0,72,0.00,,,0.00,weatherlink.com 1.10,2013-04-22 19:12:00,
2013-04-22 15:27:00,49.4,41.0,30.50,ENE,68,5.0,14.0,72,0.00,,,0.00,weatherlink.com 1.10,2013-04-22 19:27:00,
2013-04-22 15:42:00,49.9,42.0,30.50,NNE,32,3.0,16.0,73,0.00,,,0.00,weatherlink.com 1.10,2013-04-22 19:42:00,
2013-04-22 15:57:00,49.9,42.0,30.49,ENE,60,4.0,17.0,73,0.00,,,0.00,weatherlink.com 1.10,2013-04-22 19:57:00,
2013-04-22 16:12:00,49.1,41.0,30.48,ESE,102,8.0,14.0,73,0.00,,,0.00,weatherlink.com 1.10,2013-04-22 20:12:00,
2013-04-22 16:27:00,48.7,41.0,30.48,East,91,14.0,21.0,74,0.00,,,0.00,weatherlink.com 1.10,2013-04-22 20:27:00,
2013-04-22 16:42:00,48.4,41.0,30.48,NE,44,7.0,14.0,76,0.00,,,0.00,weatherlink.com 1.10,2013-04-22 20:42:00,
2013-04-22 16:57:00,48.6,41.0,30.48,ENE,75,6.0,17.0,76,0.00,,,0.00,weatherlink.com 1.10,2013-04-22 20:57:00,
2013-04-22 17:12:00,47.8,41.0,30.48,NNE,32,6.0,16.0,78,0.00,,,0.00,weatherlink.com 1.10,2013-04-22 21:12:00,
2013-04-22 17:27:00,47.3,41.0,30.47,ENE,74,5.0,17.0,79,0.00,,,0.00,weatherlink.com 1.10,2013-04-22 21:27:00,
2013-04-22 17:42:00,47.4,41.0,30.47,East,79,8.0,14.0,79,0.00,,,0.00,weatherlink.com 1.10,2013-04-22 21:42:00,
2013-04-22 17:57:00,47.1,42.0,30.46,NE,55,4.0,15.0,81,0.00,,,0.00,weatherlink.com 1.10,2013-04-22 21:57:00,
2013-04-22 18:12:00,46.8,41.0,30.46,ENE,72,5.0,13.0,81,0.00,,,0.00,weatherlink.com 1.10,2013-04-22 22:12:00,
2013-04-22 18:27:00,46.5,41.0,30.46,ENE,58,4.0,15.0,82,0.00,,,0.00,weatherlink.com 1.10,2013-04-22 22:27:00,
2013-04-22 18:42:00,46.5,42.0,30.46,ENE,75,8.0,16.0,83,0.00,,,0.00,weatherlink.com 1.10,2013-04-22 22:42:00,
2013-04-22 18:57:00,46.4,42.0,30.46,ENE,74,9.0,18.0,83,0.00,,,0.00,weatherlink.com 1.10,2013-04-22 22:57:00,
2013-04-22 19:12:00,46.5,42.0,30.46,ENE,60,2.0,11.0,85,0.00,,,0.00,weatherlink.com 1.10,2013-04-22 23:12:00,
2013-04-22 19:27:00,46.5,42.0,30.46,ENE,70,5.0,13.0,85,0.00,,,0.00,weatherlink.com 1.10,2013-04-22 23:27:00,
2013-04-22 19:42:00,46.6,43.0,30.46,NE,46,3.0,13.0,87,0.00,,,0.00,weatherlink.com 1.10,2013-04-22 23:42:00,
2013-04-22 19:57:00,46.4,43.0,30.46,East,89,5.0,16.0,86,0.00,,,0.00,weatherlink.com 1.10,2013-04-22 23:57:00,
2013-04-22 20:12:00,46.4,43.0,30.45,East,82,9.0,12.0,87,0.00,,,0.00,weatherlink.com 1.10,2013-04-23 00:12:00,
2013-04-22 20:27:00,46.5,43.0,30.45,ENE,71,6.0,16.0,88,0.00,,,0.00,weatherlink.com 1.10,2013-04-23 00:27:00,
2013-04-22 20:42:00,46.6,43.0,30.45,East,81,9.0,17.0,88,0.00,,,0.00,weatherlink.com 1.10,2013-04-23 00:42:00,
2013-04-22 20:58:00,46.7,44.0,30.45,ENE,77,10.0,18.0,89,0.00,,,0.00,weatherlink.com 1.10,2013-04-23 00:58:00,
2013-04-22 21:13:00,46.6,44.0,30.44,East,79,12.0,17.0,89,0.00,,,0.00,weatherlink.com 1.10,2013-04-23 01:13:00,
2013-04-22 21:28:00,46.6,44.0,30.45,East,85,16.0,18.0,89,0.00,,,0.00,weatherlink.com 1.10,2013-04-23 01:28:00,
2013-04-22 21:43:00,46.5,43.0,30.44,ENE,72,5.0,17.0,88,0.00,,,0.00,weatherlink.com 1.10,2013-04-23 01:43:00,
2013-04-22 21:58:00,46.5,44.0,30.45,ENE,68,6.0,15.0,89,0.00,,,0.00,weatherlink.com 1.10,2013-04-23 01:58:00,
2013-04-22 22:13:00,46.4,43.0,30.44,East,101,7.0,13.0,89,0.00,,,0.00,weatherlink.com 1.10,2013-04-23 02:13:00,
2013-04-22 22:28:00,46.5,44.0,30.43,East,88,9.0,15.0,89,0.00,,,0.00,weatherlink.com 1.10,2013-04-23 02:28:00,
2013-04-22 22:43:00,46.4,43.0,30.43,ENE,68,6.0,18.0,89,0.00,,,0.00,weatherlink.com 1.10,2013-04-23 02:43:00,
2013-04-22 22:58:00,46.3,43.0,30.43,East,84,4.0,14.0,89,0.00,,,0.00,weatherlink.com 1.10,2013-04-23 02:58:00,
2013-04-22 23:13:00,46.1,43.0,30.43,North,6,5.0,16.0,89,0.00,,,0.00,weatherlink.com 1.10,2013-04-23 03:13:00,
2013-04-22 23:28:00,46.0,43.0,30.42,ENE,70,3.0,12.0,90,0.00,,,0.00,weatherlink.com 1.10,2013-04-23 03:28:00,
2013-04-22 23:43:00,45.9,43.0,30.42,East,91,7.0,18.0,89,0.00,,,0.00,weatherlink.com 1.10,2013-04-23 03:43:00,
2013-04-22 23:58:00,45.8,43.0,30.42,East,94,8.0,21.0,89,0.00,,,0.00,weatherlink.com 1.10,2013-04-23 03:58:00,